TimeEST,TemperatureF,Dew PointF,Humidity,Sea Level PressureIn,VisibilityMPH,Wind Direction,Wind SpeedMPH,Gust SpeedMPH,PrecipitationIn,Events,Conditions,WindDirDegrees,DateUTC
12:15 AM,41.4,27.5,58,30.42,10.0,East,5.8,-,N/A,,Clear,80,2012-11-18 05:15:00
12:35 AM,41.4,26.6,56,30.42,10.0,East,5.8,-,N/A,,Clear,80,2012-11-18 05:35:00
12:55 AM,41.0,27.1,58,30.42,10.0,East,5.8,-,N/A,,Clear,80,2012-11-18 05:55:00
1:15 AM,41.2,26.2,55,30.42,10.0,East,4.6,-,N/A,,Clear,80,2012-11-18 06:15:00
1:35 AM,39.9,26.4,59,30.42,10.0,East,4.6,-,N/A,,Clear,90,2012-11-18 06:35:00
1:55 AM,40.6,25.7,55,30.42,10.0,East,4.6,-,N/A,,Clear,80,2012-11-18 06:55:00
2:15 AM,42.3,25.0,50,30.43,10.0,East,5.8,-,N/A,,Clear,100,2012-11-18 07:15:00
2:35 AM,41.4,25.0,52,30.43,10.0,East,5.8,-,N/A,,Clear,100,2012-11-18 07:35:00
2:55 AM,41.9,24.8,51,30.43,10.0,East,5.8,-,N/A,,Clear,100,2012-11-18 07:55:00
3:15 AM,40.1,25.2,55,30.44,10.0,East,3.5,-,N/A,,Clear,90,2012-11-18 08:15:00
3:35 AM,41.0,24.4,52,30.43,10.0,ENE,3.5,-,N/A,,Clear,70,2012-11-18 08:35:00
3:55 AM,41.5,23.9,50,30.43,10.0,East,4.6,-,N/A,,Clear,90,2012-11-18 08:55:00
4:15 AM,41.9,23.9,49,30.43,10.0,ESE,4.6,-,N/A,,Clear,110,2012-11-18 09:15:00
4:35 AM,39.9,23.9,53,30.43,10.0,ESE,5.8,-,N/A,,Clear,120,2012-11-18 09:35:00
4:55 AM,40.1,23.7,52,30.43,10.0,ESE,4.6,-,N/A,,Clear,110,2012-11-18 09:55:00
5:15 AM,39.7,23.7,53,30.44,10.0,ESE,5.8,-,N/A,,Clear,120,2012-11-18 10:15:00
5:35 AM,40.1,23.5,52,30.44,10.0,ESE,6.9,-,N/A,,Clear,120,2012-11-18 10:35:00
5:55 AM,39.6,23.7,53,30.44,10.0,SE,6.9,-,N/A,,Clear,130,2012-11-18 10:55:00
6:15 AM,39.7,23.5,52,30.44,10.0,SE,6.9,-,N/A,,Clear,130,2012-11-18 11:15:00
6:35 AM,40.6,23.2,50,30.44,10.0,SE,5.8,-,N/A,,Clear,140,2012-11-18 11:35:00
7:15 AM,39.7,23.4,52,30.45,10.0,SE,5.8,-,N/A,,Clear,130,2012-11-18 12:15:00
7:35 AM,40.3,23.9,52,30.46,10.0,SE,6.9,-,N/A,,Clear,130,2012-11-18 12:35:00
7:55 AM,41.5,25.0,52,30.46,10.0,ESE,6.9,-,N/A,,Clear,120,2012-11-18 12:55:00
8:15 AM,42.4,25.7,52,30.46,10.0,SE,5.8,-,N/A,,Clear,130,2012-11-18 13:15:00
8:35 AM,44.2,26.8,50,30.46,10.0,SE,5.8,-,N/A,,Clear,130,2012-11-18 13:35:00
8:55 AM,45.7,27.1,48,30.46,10.0,SSE,10.4,-,N/A,,Clear,150,2012-11-18 13:55:00
9:15 AM,46.6,27.7,48,30.46,10.0,SE,6.9,-,N/A,,Clear,140,2012-11-18 14:15:00
9:35 AM,48.0,28.2,46,30.46,10.0,SE,10.4,-,N/A,,Clear,130,2012-11-18 14:35:00
9:55 AM,49.5,29.1,46,30.45,10.0,SE,6.9,-,N/A,,Clear,140,2012-11-18 14:55:00
10:15 AM,50.0,29.3,45,30.46,10.0,SSE,9.2,-,N/A,,Clear,150,2012-11-18 15:15:00
10:35 AM,50.7,29.8,45,30.45,10.0,SSE,11.5,-,N/A,,Clear,150,2012-11-18 15:35:00
10:55 AM,51.8,30.4,44,30.44,10.0,SSE,8.1,-,N/A,,Clear,160,2012-11-18 15:55:00
11:15 AM,53.1,30.9,43,30.44,10.0,South,4.6,-,N/A,,Clear,180,2012-11-18 16:15:00
11:35 AM,54.3,31.3,42,30.43,10.0,SE,5.8,-,N/A,,Clear,130,2012-11-18 16:35:00
11:55 AM,55.9,31.6,40,30.42,10.0,SSE,4.6,-,N/A,,Clear,160,2012-11-18 16:55:00
12:15 PM,56.7,31.8,39,30.41,10.0,Calm,Calm,-,N/A,,Clear,0,2012-11-18 17:15:00
12:35 PM,57.2,32.0,38,30.40,10.0,SE,5.8,-,N/A,,Clear,140,2012-11-18 17:35:00
12:55 PM,58.3,32.4,38,30.39,10.0,Calm,Calm,-,N/A,,Clear,0,2012-11-18 17:55:00
1:15 PM,58.8,32.2,37,30.39,10.0,Calm,Calm,-,N/A,,Clear,0,2012-11-18 18:15:00
1:35 PM,58.8,32.4,37,30.38,10.0,East,4.6,-,N/A,,Clear,80,2012-11-18 18:35:00
1:55 PM,58.6,32.0,37,30.37,10.0,Calm,Calm,-,N/A,,Clear,0,2012-11-18 18:55:00
2:15 PM,59.5,32.7,36,30.37,10.0,ENE,4.6,-,N/A,,Clear,70,2012-11-18 19:15:00
2:35 PM,59.9,32.4,35,30.37,10.0,ENE,4.6,-,N/A,,Clear,60,2012-11-18 19:35:00
2:55 PM,60.4,32.9,36,30.37,10.0,ENE,4.6,-,N/A,,Clear,60,2012-11-18 19:55:00
3:15 PM,59.5,32.0,35,30.36,10.0,ENE,4.6,-,N/A,,Clear,70,2012-11-18 20:15:00
3:35 PM,59.4,32.5,36,30.36,10.0,ENE,5.8,-,N/A,,Clear,60,2012-11-18 20:35:00
3:55 PM,58.8,33.4,38,30.36,10.0,NE,4.6,-,N/A,,Clear,40,2012-11-18 20:55:00
4:15 PM,58.1,33.1,39,30.37,10.0,NE,3.5,-,N/A,,Clear,40,2012-11-18 21:15:00
4:35 PM,57.2,32.9,40,30.37,10.0,NE,3.5,-,N/A,,Clear,50,2012-11-18 21:35:00
4:55 PM,55.8,32.7,42,30.37,10.0,NE,4.6,-,N/A,,Clear,50,2012-11-18 21:55:00
5:15 PM,53.8,32.4,44,30.37,10.0,NE,3.5,-,N/A,,Clear,40,2012-11-18 22:15:00
5:35 PM,54.7,32.2,42,30.37,10.0,NE,3.5,-,N/A,,Clear,40,2012-11-18 22:35:00
5:55 PM,53.4,32.0,44,30.36,10.0,ENE,3.5,-,N/A,,Clear,70,2012-11-18 22:55:00
6:15 PM,52.7,32.0,45,30.37,10.0,Calm,Calm,-,N/A,,Clear,0,2012-11-18 23:15:00
6:35 PM,51.6,32.0,47,30.37,10.0,NE,3.5,-,N/A,,Clear,50,2012-11-18 23:35:00
6:55 PM,50.9,32.0,48,30.38,10.0,NE,3.5,-,N/A,,Clear,50,2012-11-18 23:55:00
7:15 PM,50.5,32.2,49,30.38,10.0,ENE,3.5,-,N/A,,Clear,60,2012-11-19 00:15:00
7:35 PM,50.5,32.9,51,30.38,10.0,Calm,Calm,-,N/A,,Clear,0,2012-11-19 00:35:00
7:55 PM,50.2,32.2,50,30.38,10.0,East,3.5,-,N/A,,Clear,80,2012-11-19 00:55:00
8:15 PM,49.1,32.2,52,30.38,10.0,ENE,3.5,-,N/A,,Clear,60,2012-11-19 01:15:00
8:35 PM,46.4,32.2,58,30.39,10.0,NE,4.6,-,N/A,,Clear,50,2012-11-19 01:35:00
8:55 PM,47.5,32.9,57,30.38,10.0,ENE,3.5,-,N/A,,Clear,60,2012-11-19 01:55:00
9:15 PM,45.5,32.5,61,30.39,10.0,ENE,4.6,-,N/A,,Clear,60,2012-11-19 02:15:00
9:35 PM,48.4,33.4,56,30.38,10.0,East,3.5,-,N/A,,Clear,100,2012-11-19 02:35:00
9:55 PM,48.7,34.2,57,30.38,10.0,ESE,3.5,-,N/A,,Clear,120,2012-11-19 02:55:00
10:15 PM,47.7,34.0,59,30.38,10.0,ESE,5.8,-,N/A,,Clear,120,2012-11-19 03:15:00
10:35 PM,47.5,34.3,60,30.37,10.0,ESE,5.8,-,N/A,,Clear,110,2012-11-19 03:35:00
10:55 PM,47.1,34.3,61,30.37,10.0,SE,5.8,-,N/A,,Clear,140,2012-11-19 03:55:00
11:15 PM,46.9,34.3,62,30.37,10.0,SE,4.6,-,N/A,,Clear,140,2012-11-19 04:15:00
11:35 PM,45.5,34.0,64,30.37,10.0,ESE,4.6,-,N/A,,Clear,120,2012-11-19 04:35:00